Time,TemperatureF,DewpointF,PressureIn,WindDirection,WindDirectionDegrees,WindSpeedMPH,WindSpeedGustMPH,Humidity,HourlyPrecipIn,Conditions,Clouds,dailyrainin,SoftwareType,DateUTC
2013-03-10 00:01:00,60.0,39.0,29.80,South,186,4.0,8.0,46,0.00,,,0.24,,2013-03-10 06:01:00,
2013-03-10 00:11:00,60.0,39.0,29.80,South,186,4.0,8.0,46,0.00,,,0.24,,2013-03-10 06:11:00,
2013-03-10 00:22:00,60.0,40.0,29.80,South,170,2.0,7.0,48,0.00,,,0.24,,2013-03-10 06:22:00,
2013-03-10 00:32:00,59.0,42.0,29.80,SSE,165,2.0,6.0,54,0.00,,,0.24,,2013-03-10 06:32:00,
2013-03-10 00:42:00,59.0,42.0,29.80,SSE,165,2.0,6.0,54,0.00,,,0.24,,2013-03-10 06:42:00,
2013-03-10 00:51:00,58.0,42.0,29.79,SSE,164,2.0,5.0,56,0.00,,,0.24,,2013-03-10 06:51:00,
2013-03-10 01:02:00,58.0,44.0,29.79,SSE,158,3.0,7.0,59,0.00,,,0.24,,2013-03-10 07:02:00,
2013-03-10 01:11:00,58.0,44.0,29.79,SSE,158,3.0,7.0,59,0.00,,,0.24,,2013-03-10 07:11:00,
2013-03-10 01:21:00,58.0,44.0,29.79,SSE,158,3.0,7.0,59,0.00,,,0.24,,2013-03-10 07:21:00,
2013-03-10 01:31:00,57.0,45.0,29.77,SSE,168,0.0,4.0,64,0.00,,,0.24,,2013-03-10 07:31:00,
2013-03-10 01:42:00,56.0,44.0,29.76,SSE,153,1.0,4.0,65,0.00,,,0.24,,2013-03-10 07:42:00,
2013-03-10 01:52:00,56.0,44.0,29.76,SSE,153,1.0,4.0,65,0.00,,,0.24,,2013-03-10 07:52:00,
2013-03-10 03:01:00,56.0,44.0,29.77,SSE,168,2.0,6.0,63,0.00,,,0.24,,2013-03-10 08:01:00,
2013-03-10 03:11:00,56.0,44.0,29.77,SSE,168,2.0,6.0,63,0.00,,,0.24,,2013-03-10 08:11:00,
2013-03-10 03:21:00,56.0,44.0,29.78,SSE,149,1.0,6.0,63,0.00,,,0.24,,2013-03-10 08:21:00,
2013-03-10 03:31:00,56.0,47.0,29.78,South,175,0.0,4.0,71,0.02,,,0.25,,2013-03-10 08:31:00,
2013-03-10 03:42:00,56.0,47.0,29.78,South,175,0.0,4.0,71,0.02,,,0.25,,2013-03-10 08:42:00,
2013-03-10 03:51:00,55.0,45.0,29.77,South,175,1.0,4.0,69,0.02,,,0.25,,2013-03-10 08:51:00,
2013-03-10 04:01:00,55.0,45.0,29.77,South,175,1.0,4.0,69,0.02,,,0.25,,2013-03-10 09:01:00,
2013-03-10 04:11:00,55.0,45.0,29.77,South,175,1.0,4.0,69,0.02,,,0.25,,2013-03-10 09:11:00,
2013-03-10 04:21:00,55.0,47.0,29.77,SSW,204,0.0,6.0,73,0.04,,,0.28,,2013-03-10 09:21:00,
2013-03-10 04:31:00,55.0,47.0,29.77,SSW,204,0.0,6.0,73,0.04,,,0.28,,2013-03-10 09:31:00,
2013-03-10 04:41:00,55.0,47.0,29.77,SSW,204,0.0,6.0,73,0.04,,,0.28,,2013-03-10 09:41:00,
2013-03-10 04:51:00,51.0,47.0,29.75,SSW,204,0.0,1.0,87,0.03,,,0.28,,2013-03-10 09:51:00,
2013-03-10 05:01:00,51.0,46.0,29.75,SSW,199,2.0,5.0,84,0.02,,,0.28,,2013-03-10 10:01:00,
2013-03-10 05:11:00,51.0,46.0,29.75,SSW,199,2.0,5.0,84,0.02,,,0.28,,2013-03-10 10:11:00,
2013-03-10 05:21:00,52.0,48.0,29.75,South,171,0.0,3.0,86,0.02,,,0.31,,2013-03-10 10:21:00,
2013-03-10 05:32:00,51.0,48.0,29.74,South,171,0.0,1.0,88,0.03,,,0.31,,2013-03-10 10:32:00,
2013-03-10 05:41:00,51.0,48.0,29.73,South,171,0.0,0.0,88,0.02,,,0.31,,2013-03-10 10:41:00,
2013-03-10 05:52:00,51.0,48.0,29.73,South,171,0.0,0.0,88,0.02,,,0.31,,2013-03-10 10:52:00,
2013-03-10 06:01:00,50.0,47.0,29.73,SSE,165,0.0,2.0,89,0.02,,,0.31,,2013-03-10 11:01:00,
2013-03-10 06:12:00,50.0,46.0,29.73,SSE,150,0.0,3.0,87,0.01,,,0.31,,2013-03-10 11:12:00,
2013-03-10 06:21:00,50.0,46.0,29.73,SSE,150,0.0,3.0,87,0.01,,,0.31,,2013-03-10 11:21:00,
2013-03-10 06:32:00,51.0,46.0,29.72,SSE,159,0.0,2.0,84,0.00,,,0.31,,2013-03-10 11:32:00,
2013-03-10 06:42:00,51.0,46.0,29.72,SSE,159,0.0,2.0,84,0.00,,,0.31,,2013-03-10 11:42:00,
2013-03-10 06:52:00,52.0,47.0,29.72,SSE,153,0.0,4.0,82,0.00,,,0.31,,2013-03-10 11:52:00,
2013-03-10 07:01:00,54.0,48.0,29.72,South,169,2.0,6.0,79,0.00,,,0.31,,2013-03-10 12:01:00,
2013-03-10 07:11:00,54.0,48.0,29.72,South,169,2.0,6.0,79,0.00,,,0.31,,2013-03-10 12:11:00,
2013-03-10 07:21:00,55.0,48.0,29.74,SSE,162,4.0,9.0,78,0.00,,,0.31,,2013-03-10 12:21:00,
2013-03-10 07:31:00,56.0,50.0,29.74,West,259,5.0,10.0,79,0.00,,,0.30,,2013-03-10 12:31:00,
2013-03-10 07:42:00,56.0,50.0,29.74,West,259,5.0,10.0,79,0.00,,,0.30,,2013-03-10 12:42:00,
2013-03-10 07:51:00,56.0,51.0,29.75,SSW,206,3.0,11.0,83,0.01,,,0.31,,2013-03-10 12:51:00,
2013-03-10 08:01:00,55.0,51.0,29.74,SW,217,2.0,10.0,87,0.03,,,0.33,,2013-03-10 13:01:00,
2013-03-10 08:11:00,55.0,51.0,29.74,SW,217,2.0,10.0,87,0.03,,,0.33,,2013-03-10 13:11:00,
2013-03-10 08:21:00,55.0,52.0,29.75,SSE,166,1.0,5.0,89,0.04,,,0.34,,2013-03-10 13:21:00,
2013-03-10 08:31:00,54.0,51.0,29.74,South,183,2.0,8.0,90,0.04,,,0.28,,2013-03-10 13:31:00,
2013-03-10 08:41:00,54.0,51.0,29.74,South,183,2.0,8.0,90,0.04,,,0.28,,2013-03-10 13:41:00,
2013-03-10 08:52:00,54.0,51.0,29.74,South,173,1.0,3.0,91,0.04,,,0.30,,2013-03-10 13:52:00,
2013-03-10 09:01:00,54.0,51.0,29.74,South,182,2.0,7.0,91,0.04,,,0.32,,2013-03-10 14:01:00,
2013-03-10 09:11:00,54.0,51.0,29.74,South,182,2.0,7.0,91,0.04,,,0.32,,2013-03-10 14:11:00,
2013-03-10 09:21:00,54.0,52.0,29.74,SSW,199,0.0,4.0,92,0.03,,,0.32,,2013-03-10 14:21:00,
2013-03-10 09:32:00,54.0,52.0,29.74,SSW,199,0.0,4.0,92,0.03,,,0.32,,2013-03-10 14:32:00,
2013-03-10 09:41:00,54.0,52.0,29.74,SSW,199,0.0,4.0,92,0.03,,,0.32,,2013-03-10 14:41:00,
2013-03-10 09:51:00,54.0,52.0,29.74,SSW,199,0.0,4.0,92,0.03,,,0.32,,2013-03-10 14:51:00,
2013-03-10 10:01:00,54.0,53.0,29.73,WSW,255,0.0,1.0,95,0.09,,,0.39,,2013-03-10 15:01:00,
2013-03-10 10:11:00,54.0,53.0,29.73,WSW,255,0.0,1.0,95,0.09,,,0.39,,2013-03-10 15:11:00,
2013-03-10 10:21:00,53.0,52.0,29.67,WSW,255,0.0,1.0,95,0.13,,,0.43,,2013-03-10 15:21:00,
2013-03-10 10:32:00,53.0,52.0,29.70,WSW,255,0.0,0.0,95,0.10,,,0.38,,2013-03-10 15:32:00,
2013-03-10 10:42:00,53.0,52.0,29.70,WSW,255,0.0,0.0,95,0.10,,,0.38,,2013-03-10 15:42:00,
2013-03-10 10:51:00,53.0,52.0,29.69,WSW,256,0.0,2.0,96,0.10,,,0.40,,2013-03-10 15:51:00,
2013-03-10 11:01:00,53.0,52.0,29.72,West,263,0.0,2.0,96,0.10,,,0.44,,2013-03-10 16:01:00,
2013-03-10 11:12:00,53.0,52.0,29.72,West,263,0.0,2.0,96,0.10,,,0.44,,2013-03-10 16:12:00,
2013-03-10 11:21:00,53.0,52.0,29.72,West,263,0.0,1.0,96,0.13,,,0.51,,2013-03-10 16:21:00,
2013-03-10 11:32:00,53.0,52.0,29.70,West,264,0.0,2.0,96,0.20,,,0.52,,2013-03-10 16:32:00,
2013-03-10 11:41:00,53.0,52.0,29.70,West,264,0.0,2.0,96,0.20,,,0.52,,2013-03-10 16:41:00,
2013-03-10 11:51:00,53.0,52.0,29.69,West,264,0.0,1.0,96,0.25,,,0.59,,2013-03-10 16:51:00,
2013-03-10 12:01:00,53.0,52.0,29.69,West,264,0.0,2.0,96,0.28,,,0.65,,2013-03-10 17:01:00,
2013-03-10 12:11:00,53.0,52.0,29.69,West,264,0.0,2.0,96,0.28,,,0.65,,2013-03-10 17:11:00,
2013-03-10 12:21:00,53.0,52.0,29.68,West,274,0.0,3.0,96,0.24,,,0.70,,2013-03-10 17:21:00,
2013-03-10 12:31:00,53.0,52.0,29.67,NW,311,0.0,2.0,97,0.20,,,0.69,,2013-03-10 17:31:00,
2013-03-10 12:41:00,53.0,52.0,29.67,NW,311,0.0,2.0,97,0.20,,,0.69,,2013-03-10 17:41:00,
2013-03-10 12:51:00,53.0,52.0,29.67,NW,311,0.0,2.0,97,0.20,,,0.69,,2013-03-10 17:51:00,
2013-03-10 13:01:00,53.0,52.0,29.67,SW,234,3.0,6.0,97,0.12,,,0.73,,2013-03-10 18:01:00,
2013-03-10 13:11:00,53.0,52.0,29.67,SW,234,3.0,6.0,97,0.12,,,0.73,,2013-03-10 18:11:00,
2013-03-10 13:21:00,53.0,52.0,29.67,West,273,2.0,8.0,97,0.09,,,0.75,,2013-03-10 18:21:00,
2013-03-10 13:32:00,52.0,50.0,29.67,WNW,298,7.0,16.0,92,0.06,,,0.75,,2013-03-10 18:32:00,
2013-03-10 13:42:00,52.0,50.0,29.67,WNW,298,7.0,16.0,92,0.06,,,0.75,,2013-03-10 18:42:00,
2013-03-10 13:52:00,52.0,50.0,29.72,NW,306,5.0,10.0,92,0.06,,,0.76,,2013-03-10 18:52:00,
2013-03-10 14:01:00,51.0,49.0,29.71,WNW,283,4.0,9.0,94,0.06,,,0.80,,2013-03-10 19:01:00,
2013-03-10 14:11:00,51.0,49.0,29.71,WNW,283,4.0,9.0,94,0.06,,,0.80,,2013-03-10 19:11:00,
2013-03-10 14:21:00,51.0,49.0,29.71,WSW,240,4.0,9.0,94,0.07,,,0.82,,2013-03-10 19:21:00,
2013-03-10 14:32:00,51.0,49.0,29.71,West,279,4.0,10.0,94,0.09,,,0.83,,2013-03-10 19:32:00,
2013-03-10 14:42:00,51.0,49.0,29.71,West,279,4.0,10.0,94,0.09,,,0.83,,2013-03-10 19:42:00,
2013-03-10 14:52:00,51.0,50.0,29.70,WSW,246,2.0,8.0,95,0.11,,,0.87,,2013-03-10 19:52:00,
2013-03-10 15:02:00,51.0,50.0,29.69,WSW,251,1.0,5.0,95,0.08,,,0.87,,2013-03-10 20:02:00,
2013-03-10 15:12:00,51.0,50.0,29.69,WSW,251,1.0,5.0,95,0.08,,,0.87,,2013-03-10 20:12:00,
2013-03-10 15:22:00,51.0,50.0,29.68,WSW,250,0.0,4.0,95,0.06,,,0.88,,2013-03-10 20:22:00,
2013-03-10 15:32:00,51.0,50.0,29.67,WSW,250,0.0,2.0,95,0.06,,,0.90,,2013-03-10 20:32:00,
2013-03-10 15:42:00,51.0,50.0,29.67,WSW,250,0.0,2.0,95,0.06,,,0.90,,2013-03-10 20:42:00,
2013-03-10 15:52:00,51.0,50.0,29.66,WSW,244,0.0,2.0,96,0.04,,,0.91,,2013-03-10 20:52:00,
2013-03-10 16:02:00,51.0,50.0,29.64,ESE,107,1.0,3.0,96,0.04,,,0.91,,2013-03-10 21:02:00,
2013-03-10 16:12:00,51.0,50.0,29.64,ESE,107,1.0,3.0,96,0.04,,,0.91,,2013-03-10 21:12:00,
2013-03-10 16:22:00,50.0,49.0,29.64,SE,144,0.0,4.0,96,0.05,,,0.93,,2013-03-10 21:22:00,
2013-03-10 16:32:00,50.0,49.0,29.63,ESE,117,1.0,6.0,96,0.04,,,0.94,,2013-03-10 21:32:00,
2013-03-10 16:42:00,50.0,49.0,29.63,ESE,117,1.0,6.0,96,0.04,,,0.94,,2013-03-10 21:42:00,
2013-03-10 16:52:00,50.0,49.0,29.65,South,170,1.0,9.0,97,0.03,,,0.94,,2013-03-10 21:52:00,
2013-03-10 17:02:00,51.0,50.0,29.67,SSW,208,2.0,9.0,97,0.02,,,0.94,,2013-03-10 22:02:00,
2013-03-10 17:12:00,51.0,50.0,29.67,SSW,208,2.0,9.0,97,0.02,,,0.94,,2013-03-10 22:12:00,
2013-03-10 17:22:00,51.0,50.0,29.66,SE,128,0.0,6.0,96,0.02,,,0.94,,2013-03-10 22:22:00,
2013-03-10 17:32:00,51.0,50.0,29.65,South,184,0.0,4.0,96,0.01,,,0.94,,2013-03-10 22:32:00,
2013-03-10 17:42:00,51.0,50.0,29.65,South,184,0.0,4.0,96,0.01,,,0.94,,2013-03-10 22:42:00,
2013-03-10 17:52:00,50.0,49.0,29.66,South,169,1.0,5.0,96,0.01,,,0.94,,2013-03-10 22:52:00,
2013-03-10 18:03:00,50.0,49.0,29.65,SSW,194,2.0,6.0,96,0.01,,,0.94,,2013-03-10 23:03:00,
2013-03-10 18:12:00,50.0,49.0,29.66,South,171,1.0,5.0,96,0.00,,,0.94,,2013-03-10 23:12:00,
2013-03-10 18:22:00,50.0,49.0,29.66,South,171,1.0,5.0,96,0.00,,,0.94,,2013-03-10 23:22:00,
2013-03-10 18:32:00,50.0,49.0,29.67,SSW,205,1.0,5.0,96,0.00,,,0.94,,2013-03-10 23:32:00,
2013-03-10 18:42:00,50.0,49.0,29.67,SSW,205,1.0,5.0,96,0.00,,,0.94,,2013-03-10 23:42:00,
2013-03-10 18:52:00,51.0,50.0,29.67,South,174,1.0,7.0,96,0.00,,,0.94,,2013-03-10 23:52:00,
2013-03-10 19:02:00,51.0,50.0,29.67,South,174,1.0,7.0,96,0.00,,,0.94,,2013-03-11 00:02:00,
2013-03-10 19:12:00,51.0,50.0,29.67,South,174,1.0,7.0,96,0.00,,,0.94,,2013-03-11 00:12:00,
2013-03-10 19:23:00,51.0,49.0,29.67,South,175,1.0,7.0,94,0.00,,,0.94,,2013-03-11 00:23:00,
2013-03-10 19:33:00,51.0,49.0,29.67,SSW,209,2.0,7.0,94,0.00,,,0.94,,2013-03-11 00:33:00,
2013-03-10 19:43:00,51.0,49.0,29.67,SSW,209,2.0,7.0,94,0.00,,,0.94,,2013-03-11 00:43:00,
2013-03-10 19:52:00,50.0,49.0,29.67,SSW,194,1.0,5.0,95,0.01,,,0.95,,2013-03-11 00:52:00,
2013-03-10 20:02:00,50.0,49.0,29.67,SSE,155,0.0,4.0,95,0.01,,,0.95,,2013-03-11 01:02:00,
2013-03-10 20:13:00,50.0,49.0,29.67,SSE,155,0.0,4.0,95,0.01,,,0.95,,2013-03-11 01:13:00,
2013-03-10 20:23:00,49.0,48.0,29.68,South,172,2.0,5.0,96,0.01,,,0.95,,2013-03-11 01:23:00,
2013-03-10 20:32:00,50.0,49.0,29.68,SE,140,3.0,10.0,96,0.01,,,0.95,,2013-03-11 01:32:00,
2013-03-10 20:42:00,50.0,49.0,29.68,SE,140,3.0,10.0,96,0.01,,,0.95,,2013-03-11 01:42:00,
2013-03-10 20:52:00,50.0,49.0,29.68,SSE,155,1.0,6.0,96,0.00,,,0.95,,2013-03-11 01:52:00,
2013-03-10 21:02:00,50.0,49.0,29.68,SSE,161,2.0,7.0,96,0.00,,,0.95,,2013-03-11 02:02:00,
2013-03-10 21:12:00,50.0,49.0,29.68,SSE,161,2.0,7.0,96,0.00,,,0.95,,2013-03-11 02:12:00,
2013-03-10 21:22:00,50.0,49.0,29.69,South,188,2.0,5.0,96,0.00,,,0.95,,2013-03-11 02:22:00,
2013-03-10 21:32:00,49.0,47.0,29.71,WNW,297,4.0,12.0,93,0.05,,,1.00,,2013-03-11 02:32:00,
2013-03-10 21:42:00,49.0,47.0,29.71,WNW,297,4.0,12.0,93,0.05,,,1.00,,2013-03-11 02:42:00,
2013-03-10 21:52:00,49.0,47.0,29.72,WSW,251,2.0,10.0,94,0.06,,,1.01,,2013-03-11 02:52:00,
2013-03-10 22:02:00,48.0,46.0,29.72,West,260,3.0,9.0,94,0.06,,,1.01,,2013-03-11 03:02:00,
2013-03-10 22:12:00,48.0,46.0,29.72,West,260,3.0,9.0,94,0.06,,,1.01,,2013-03-11 03:12:00,
2013-03-10 22:22:00,48.0,46.0,29.72,WNW,296,5.0,10.0,94,0.06,,,1.01,,2013-03-11 03:22:00,
2013-03-10 22:32:00,47.0,45.0,29.73,West,281,4.0,12.0,93,0.02,,,1.02,,2013-03-11 03:32:00,
2013-03-10 22:42:00,47.0,45.0,29.73,West,281,4.0,12.0,93,0.02,,,1.02,,2013-03-11 03:42:00,
2013-03-10 22:52:00,47.0,45.0,29.73,West,279,3.0,9.0,94,0.01,,,1.02,,2013-03-11 03:52:00,
2013-03-10 23:02:00,46.0,44.0,29.74,West,269,4.0,12.0,91,0.01,,,1.02,,2013-03-11 04:02:00,
2013-03-10 23:12:00,46.0,44.0,29.74,West,269,4.0,12.0,91,0.01,,,1.02,,2013-03-11 04:12:00,
2013-03-10 23:22:00,46.0,44.0,29.72,West,273,1.0,6.0,92,0.01,,,1.02,,2013-03-11 04:22:00,
2013-03-10 23:32:00,46.0,44.0,29.73,WNW,286,1.0,6.0,93,0.00,,,1.02,,2013-03-11 04:32:00,
2013-03-10 23:42:00,46.0,44.0,29.73,WNW,286,1.0,6.0,93,0.00,,,1.02,,2013-03-11 04:42:00,
2013-03-10 23:52:00,45.0,43.0,29.73,WNW,284,1.0,3.0,93,0.00,,,1.02,,2013-03-11 04:52:00,